DW1549 Fauske NO current weather conditions

sailwx.info

Wind from 232

Air temperature 11.1° C
Dewpoint 10.7° C

Last reported at 2015-Jul-31 00:47 UTC.
Time now 2015-Jul-31 01:05 UTC

Location: N 67°16' E 015°25'.
View on Google Maps.

See reports from other nearby stations

  
Tides and Currents Weather Stations Pressure Air Temp Water Temp Dewpoint Dewpoint Depression Visibility Wind Speed Wind Dir Waves Ship Positions
date/time (UTC)wind fromknots sea level pressurealtimeterstation pressurevisibilityair tempwater tempwave heightnotes
2015-Jul-31 00:47 232 11.1
2015-Jul-31 00:37 232 11.1
2015-Jul-31 00:27 232 11.1
2015-Jul-31 00:17 232 11.1
2015-Jul-31 00:07 232 11.1
2015-Jul-30 23:57 232 11.1
2015-Jul-30 23:47 232 11.1
2015-Jul-30 23:37 232 11.1
2015-Jul-30 23:27 232 11.7
2015-Jul-30 23:17 232 11.7
2015-Jul-30 23:07 232 11.7
2015-Jul-30 22:57 232 11.7
2015-Jul-30 22:47 232 11.7
2015-Jul-30 22:37 231 11.7
2015-Jul-30 22:27 232 11.7
2015-Jul-30 22:17 232 11.7
2015-Jul-30 22:07 231 11.7
2015-Jul-30 21:57 231 11.1
2015-Jul-30 21:47 231 11.7
2015-Jul-30 21:37 232 11.7
2015-Jul-30 21:27 232 11.7
2015-Jul-30 21:17 231 11.7
2015-Jul-30 21:07 231 11.7
2015-Jul-30 20:57 231 11.7
2015-Jul-30 20:47 232 11.7
2015-Jul-30 20:37 231 11.7
2015-Jul-30 20:27 231 11.7
2015-Jul-30 20:17 231 11.7
2015-Jul-30 20:07 231 11.7
2015-Jul-30 19:57 231 11.7
2015-Jul-30 19:47 231 11.7
2015-Jul-30 19:37 231 11.7
2015-Jul-30 19:27 231 11.7
2015-Jul-30 19:17 231 11.7
2015-Jul-30 19:07 231 12.2
2015-Jul-30 18:57 231 12.2
2015-Jul-30 18:47 231 12.2
2015-Jul-30 18:37 231 12.2
2015-Jul-30 18:27 231 12.2
2015-Jul-30 18:17 231 12.2
2015-Jul-30 18:07 231 12.2
2015-Jul-30 17:57 231 12.2
2015-Jul-30 17:47 231 12.2
2015-Jul-30 17:37 231 12.2
2015-Jul-30 17:27 231 12.2
2015-Jul-30 17:17 230 12.2
2015-Jul-30 17:07 230 12.2
2015-Jul-30 16:57 230 12.2
2015-Jul-30 16:47 230 12.2
2015-Jul-30 16:37 230 12.2
2015-Jul-30 16:27 230 12.2
2015-Jul-30 16:17 230 12.2
2015-Jul-30 16:07 231 12.2
2015-Jul-30 15:57 231 12.2
2015-Jul-30 15:47 231 1 gusting 4 12.2
2015-Jul-30 15:37 240 12.8
2015-Jul-30 15:27 240 12.8
2015-Jul-30 15:17 240 12.2
2015-Jul-30 15:07 240 12.2
2015-Jul-30 14:57 240 12.2
2015-Jul-30 14:47 241 0 gusting 2 12.2
2015-Jul-30 14:37 240 1 gusting 5 12.2
2015-Jul-30 14:27 238 0 gusting 6 12.2
2015-Jul-30 14:17 256 0 gusting 6 12.2
2015-Jul-30 14:07 255 12.2
2015-Jul-30 13:57 255 12.2
2015-Jul-30 13:47 255 12.2
2015-Jul-30 13:37 255 0 gusting 6 12.2
2015-Jul-30 13:27 245 2 gusting 10 12.2
2015-Jul-30 13:17 234 2 gusting 8 12.2
2015-Jul-30 13:07 245 12.8
2015-Jul-30 12:57 245 0 gusting 4 12.2
2015-Jul-30 12:47 245 12.2
2015-Jul-30 12:37 245 1 gusting 5 12.2
2015-Jul-30 12:27 235 1 gusting 6 12.2
2015-Jul-30 12:17 249 1 gusting 8 12.8
2015-Jul-30 12:07 253 0 gusting 6 12.8
2015-Jul-30 11:57 256 2 gusting 6 12.8
2015-Jul-30 11:47 255 0 gusting 6 12.8
2015-Jul-30 11:37 250 1 gusting 6 12.8
2015-Jul-30 11:27 259 0 gusting 5 12.8
2015-Jul-30 11:17 252 0 gusting 6 12.8
2015-Jul-30 11:07 250 0 gusting 5 12.2
2015-Jul-30 10:57 257 0 gusting 6 12.2
2015-Jul-30 10:47 247 1 gusting 6 12.2
2015-Jul-30 10:37 240 1 gusting 4 12.2
2015-Jul-30 10:27 251 0 gusting 6 12.2
2015-Jul-30 10:17 250 1 gusting 5 12.2
2015-Jul-30 10:07 250 1 gusting 6 12.2
2015-Jul-30 09:57 255 11.7
2015-Jul-30 09:47 255 0 gusting 6 11.7
2015-Jul-30 09:37 264 0 gusting 6 11.7
2015-Jul-30 09:27 247 0 gusting 7 11.7
2015-Jul-30 09:17 254 0 gusting 5 11.7
2015-Jul-30 09:07 276 0 gusting 5 11.7
2015-Jul-30 08:57 284 2 gusting 7 11.7
2015-Jul-30 08:47 238 1 gusting 6 11.7
2015-Jul-30 08:37 250 1 gusting 5 11.7
2015-Jul-30 08:27 253 1 gusting 6 11.7
2015-Jul-30 08:17 253 0 gusting 6 11.7
2015-Jul-30 08:07 276 2 gusting 8 11.7
2015-Jul-30 07:57 242 1 gusting 7 11.7
2015-Jul-30 07:47 256 2 gusting 10 11.7
2015-Jul-30 07:37 249 0 gusting 8 11.7
2015-Jul-30 07:27 258 1 gusting 8 11.7
2015-Jul-30 07:17 245 1 gusting 6 11.7
2015-Jul-30 07:07 267 2 gusting 8 11.7
2015-Jul-30 06:57 261 0 gusting 5 11.7
2015-Jul-30 06:47 263 1 gusting 10 11.7
2015-Jul-30 06:37 247 2 gusting 6 11.7
2015-Jul-30 06:27 249 1 gusting 6 11.7
2015-Jul-30 06:17 250 0 gusting 2 11.7
2015-Jul-30 06:07 254 11.1
2015-Jul-30 05:57 259 0 gusting 5 11.1
2015-Jul-30 05:47 248 0 gusting 4 11.1
2015-Jul-30 05:37 245 0 gusting 6 11.1
2015-Jul-30 05:27 251 0 gusting 4 11.1
2015-Jul-30 05:17 253 1 gusting 6 11.1
2015-Jul-30 05:07 247 0 gusting 8 11.1
2015-Jul-30 04:57 265 11.1
2015-Jul-30 04:47 227 2 gusting 8 11.1
2015-Jul-30 04:37 247 1 gusting 8 11.1
2015-Jul-30 04:27 251 0 gusting 6 11.1
2015-Jul-30 04:17 265 0 gusting 6 11.1
2015-Jul-30 04:07 250 0 gusting 6 11.1
2015-Jul-30 03:57 248 2 gusting 8 11.1
2015-Jul-30 03:47 249 1 gusting 7 11.1
2015-Jul-30 03:37 259 1 gusting 7 11.7
2015-Jul-30 03:27 256 0 gusting 5 11.7
2015-Jul-30 03:17 254 1 gusting 8 11.1
2015-Jul-30 03:07 245 1 gusting 5 11.7
2015-Jul-30 02:57 249 1 gusting 8 11.7
2015-Jul-30 02:47 253 0 gusting 5 11.7
2015-Jul-30 02:37 255 11.7
2015-Jul-30 02:27 256 0 gusting 8 11.7
2015-Jul-30 02:17 250 2 gusting 6 11.7
2015-Jul-30 02:07 242 2 gusting 7 11.7
2015-Jul-30 01:57 259 1 gusting 5 11.7
2015-Jul-30 01:47 250 0 gusting 6 11.7
2015-Jul-30 01:37 259 11.7
2015-Jul-30 01:27 259 1 gusting 5 11.7
2015-Jul-30 01:17 249 0 gusting 5 11.7
2015-Jul-30 01:07 258 0 gusting 6 11.7
2015-Jul-30 00:57 256 1 gusting 5 11.7
2015-Jul-30 00:47 260 11.7
2015-Jul-30 00:37 264 1 gusting 7 11.7
2015-Jul-30 00:27 260 1 gusting 6 11.7
2015-Jul-30 00:17 254 11.7
2015-Jul-30 00:07 249 11.7
2015-Jul-29 23:57 247 11.7
2015-Jul-29 23:47 247 11.7
2015-Jul-29 23:37 245 11.7
2015-Jul-29 23:27 245 0 gusting 6 12.2
2015-Jul-29 23:17 242 12.2
2015-Jul-29 23:07 241 12.2
2015-Jul-29 22:57 241 12.2
2015-Jul-29 22:47 236 0 gusting 2 12.2
2015-Jul-29 22:37 236 1 gusting 6 12.2
2015-Jul-29 22:27 263 12.2
2015-Jul-29 22:17 257 0 gusting 2 12.2
2015-Jul-29 22:07 257 12.8
2015-Jul-29 21:57 257 1 gusting 4 12.8
2015-Jul-29 21:47 255 1 gusting 10 12.8
2015-Jul-29 21:37 255 0 gusting 5 12.8
2015-Jul-29 21:27 257 2 gusting 6 12.8
2015-Jul-29 21:17 257 0 gusting 5 12.8
2015-Jul-29 21:07 257 13.3
2015-Jul-29 20:57 257 13.3
2015-Jul-29 20:47 254 13.3
2015-Jul-29 20:37 254 13.3
2015-Jul-29 20:27 254 0 gusting 5 13.3
2015-Jul-29 20:17 256 1 gusting 6 13.9
2015-Jul-29 20:07 246 0 gusting 4 13.9
2015-Jul-29 19:57 246 13.9
2015-Jul-29 19:47 246 0 gusting 2 13.9
2015-Jul-29 19:37 245 13.9
2015-Jul-29 19:27 243 14.4
2015-Jul-29 19:17 243 14.4
2015-Jul-29 19:07 243 14.4
2015-Jul-29 18:57 243 0 gusting 5 14.4
2015-Jul-29 18:47 241 14.4
2015-Jul-29 18:37 250 15.0
2015-Jul-29 18:27 250 0 gusting 5 15.0
2015-Jul-29 18:17 247 15.0
2015-Jul-29 18:07 246 0 gusting 4 15.6
2015-Jul-29 17:57 244 15.6
2015-Jul-29 17:47 255 1 gusting 5 15.6
2015-Jul-29 17:37 243 3 gusting 7 15.6
2015-Jul-29 17:27 241 1 gusting 10 15.6
2015-Jul-29 17:17 246 1 gusting 7 15.6
2015-Jul-29 17:07 248 1 gusting 7 15.6
2015-Jul-29 16:57 255 2 gusting 7 16.1
2015-Jul-29 16:47 263 2 gusting 8 16.1
2015-Jul-29 16:37 238 0 gusting 6 16.7
2015-Jul-29 16:27 249 2 gusting 6 16.7
2015-Jul-29 16:17 243 1 gusting 8 16.7
2015-Jul-29 16:07 246 2 gusting 10 16.7
2015-Jul-29 15:57 276 4 gusting 10 17.2
2015-Jul-29 15:47 239 2 gusting 10 17.2
2015-Jul-29 15:37 236 1 gusting 6 17.8
2015-Jul-29 15:27 240 0 gusting 6 17.8
2015-Jul-29 15:17 256 2 gusting 8 17.8
2015-Jul-29 15:07 251 0 gusting 8 17.8
2015-Jul-29 14:57 243 1 gusting 7 17.8
2015-Jul-29 14:47 247 4 gusting 10 17.8
2015-Jul-29 14:37 244 4 gusting 10 17.8
2015-Jul-29 14:27 245 2 gusting 10 18.3
2015-Jul-29 14:17 254 3 gusting 10 18.3
2015-Jul-29 14:07 249 2 gusting 8 18.9
2015-Jul-29 13:57 234 1 gusting 11 18.9
2015-Jul-29 13:47 224 2 gusting 10 18.9
2015-Jul-29 13:37 263 5 gusting 10 18.9
2015-Jul-29 13:27 249 4 gusting 10 18.9
2015-Jul-29 13:17 250 5 gusting 11 18.3
2015-Jul-29 13:07 244 3 gusting 10 18.3
2015-Jul-29 12:57 246 2 gusting 8 18.9
2015-Jul-29 12:47 251 3 gusting 10 18.3
2015-Jul-29 12:37 241 1 gusting 8 18.3
2015-Jul-29 12:27 249 4 gusting 11 18.3
2015-Jul-29 12:17 222 4 gusting 8 18.9
2015-Jul-29 12:07 242 3 gusting 10 19.4
2015-Jul-29 11:57 246 2 gusting 8 18.9
2015-Jul-29 11:47 235 0 gusting 7 18.9
2015-Jul-29 11:37 203 0 gusting 2 18.9
2015-Jul-29 11:27 182 0 gusting 4 18.3
2015-Jul-29 11:17 134 17.8
2015-Jul-29 11:07 134 17.2
2015-Jul-29 10:57 135 17.2
2015-Jul-29 10:47 134 17.2
2015-Jul-29 10:37 134 17.2
2015-Jul-29 10:27 134 17.2
2015-Jul-29 10:17 134 17.2
2015-Jul-29 10:07 134 16.7
2015-Jul-29 09:57 133 16.7
2015-Jul-29 09:47 133 16.7
2015-Jul-29 09:37 133 16.7
2015-Jul-29 09:27 133 16.1
2015-Jul-29 09:17 132 16.1
2015-Jul-29 09:07 132 16.1
2015-Jul-29 08:57 132 16.1
2015-Jul-29 08:47 132 15.6
2015-Jul-29 08:37 132 15.6
2015-Jul-29 08:27 132 15.0
2015-Jul-29 08:17 132 14.4
2015-Jul-29 08:07 132 14.4
2015-Jul-29 07:57 132 14.4
2015-Jul-29 07:47 132 14.4
2015-Jul-29 07:37 132 14.4
2015-Jul-29 07:27 132 13.9
2015-Jul-29 07:17 132 13.9
2015-Jul-29 07:07 132 13.3
2015-Jul-29 06:57 132 13.3
2015-Jul-29 06:47 132 12.8
2015-Jul-29 06:37 132 12.8
2015-Jul-29 06:27 132 12.2
2015-Jul-29 06:17 132 12.2
2015-Jul-29 06:07 132 12.2
2015-Jul-29 05:57 132 11.7
2015-Jul-29 05:47 132 11.7
2015-Jul-29 05:37 132 11.7
2015-Jul-29 05:27 132 11.7
2015-Jul-29 05:17 132 11.1
2015-Jul-29 05:07 132 11.1
2015-Jul-29 04:57 132 11.1
2015-Jul-29 04:47 132 10.6
2015-Jul-29 04:37 132 10.6
2015-Jul-29 04:27 131 10.6
2015-Jul-29 04:17 131 10.6
2015-Jul-29 04:07 131 10.6
2015-Jul-29 03:57 131 10.6
2015-Jul-29 03:47 131 10.0
2015-Jul-29 03:37 131 10.0
2015-Jul-29 03:27 131 10.0
2015-Jul-29 03:17 131 10.0
2015-Jul-29 03:07 131 10.0
2015-Jul-29 02:57 131 10.0
2015-Jul-29 02:47 131 10.0
2015-Jul-29 02:37 131 10.0
2015-Jul-29 02:27 131 10.0
2015-Jul-29 02:17 131 10.0
2015-Jul-29 02:07 131 10.6
2015-Jul-29 01:57 131 10.6
2015-Jul-29 01:47 131 10.6
2015-Jul-29 01:37 131 10.6
2015-Jul-29 01:27 131 10.6
2015-Jul-29 01:17 131 10.6
2015-Jul-29 01:07 131 10.6